Regional Weather Roundup
Issued by NWS

Home | Current Version | Previous Version | Text Only | Print | Product List | Glossary On
Versions: 1 2 3 4 5 6 7 8 9 10 11 12 13 14 15 16 17 18 19 20 21 22 23 24 25 26 27 28 29
000
ASUS45 KBOI 301310
RWRID
WEATHER ROUNDUP FOR IDAHO
NATIONAL WEATHER SERVICE BOISE ID
700 AM MDT THU OCT 30 2014

NOTE: "FAIR" INDICATES FEW OR NO CLOUDS BELOW 12000 FEET
WITH NO SIGNIFICANT WEATHER AND/OR OBSTRUCTIONS TO VISIBILITY

IDZ012-014-301400-
SOUTHWEST IDAHO


CITY           SKY/WX    TMP DP  RH WIND       PRES   REMARKS
BOISE          CLEAR     52  37  56 S13       30.14S
CALDWELL       CLEAR     39  30  70 CALM      30.17R
MOUNTAIN HOME  MOCLDY    42  42  99 SE9       30.16F
$$

IDZ016-017-301400-
SOUTHCENTRAL IDAHO


CITY           SKY/WX    TMP DP  RH WIND       PRES   REMARKS
BURLEY         PTCLDY    36  32  85 N3        30.21F
JEROME         PTCLDY    44  34  67 NE15      30.20F
TWIN FALLS     CLEAR     35  29  78 CALM      30.20F
$$

IDZ019>023-301400-
SOUTHEAST IDAHO


CITY           SKY/WX    TMP DP  RH WIND       PRES   REMARKS
IDAHO FALLS    CLOUDY    35  28  75 N5        30.30R WCI  31
POCATELLO      CLOUDY    43  32  65 E3        30.27F
REXBURG        MOCLDY    35  30  82 E3        30.30S
$$

IDZ006-010-011-018-031-032-301400-
CENTRAL IDAHO MOUNTAINS


CITY           SKY/WX    TMP DP  RH WIND       PRES   REMARKS
MCCALL         CLOUDY    36  34  92 CALM      30.19S
HAILEY         PTCLDY    43  25  49 W7        30.29S
STANLEY          N/A     30  26  85 S3        30.29S
SALMON         CLOUDY    37  36  93 CALM      30.27S
CHALLIS        MOCLDY    36  30  79 SE3       30.28S
$$

IDZ002-004-006-007-026-301400-
NORTHERN IDAHO


CITY           SKY/WX    TMP DP  RH WIND       PRES   REMARKS
LEWISTON       CLOUDY    50  46  86 SE3       30.10F
LOWELL           N/A     46  45  96 N3        30.22S
COEUR D`ALENE  CLOUDY    46  43  87 N15       30.15F
MULLAN PASS    FOG       34  34 100 S10       30.19F VSB 1/4 WCI  26
$$



USA.gov is the U.S. government's official web portal to all federal, state and local government web resources and services.